Regional Weather Roundup
Issued by NWS Goodland, KS

Home | Current Version | Previous Version | Graphics & Text | Print | Product List | Glossary On
Versions: 1 2 3 4 5 6 7 8 9 10 11 12 13 14 15 16 17 18 19 20 21 22 23 24 25 26 27 28 29 30 31 32 33 34 35 36 37 38 39 40 41 42 43 44 45 46 47 48 49 50
000
ASUS43 KGLD 230708
RWRGLD

GOODLAND FORECAST AREA HOURLY WEATHER ROUNDUP
NATIONAL WEATHER SERVICE GOODLAND KS
100 AM MDT THU OCT 23 2014

...OFFICIAL OBSERVATIONS...

CITY           SKY/WX    TMP DP  RH WIND       PRES   REMARKS
GOODLAND KS    CLEAR     45  43  93 W7        30.12R
HILL CITY KS   PTCLDY    50  49  96 W3        30.06R
IMPERIAL NEB   CLEAR     45  32  60 W5        30.09R
MCCOOK NEB     CLEAR     45  43  93 NW5       30.08R
AKRON CO       CLEAR     42  33  70 SW5       30.12F
BURLINGTON CO  CLEAR     44  39  82 W5        30.12S
LIMON CO       PTCLDY    42  40  92 CALM      30.16F
$$

...UNOFFICIAL OBSERVATIONS...

CITY           SKY/WX    TMP DP  RH WIND       PRES   REMARKS
COLBY KS       CLEAR     45  45 100 CALM      30.09R
GOVE KS          N/A     61  32  33 MISG        N/A
NORTON KS      FOG       50  48  93 CALM      30.05R VSB 0
SHARON SPRINGS   N/A     49  46  88 CALM        N/A
TRIBUNE KS     CLEAR     50  48  93 W6        30.11
TRENTON NEB      N/A     53  32  45 CALM        N/A
KIT CARSON CO    N/A     46  40  81 CALM        N/A
YUMA CO          N/A     39  32  76 CALM        N/A
$$



USA.gov is the U.S. government's official web portal to all federal, state and local government web resources and services.